Location: Millers Ferry
(32.0990°N, 87.3680°W)
Time: 21:44:56
(UTC-05:00)

CSL-04 Rocket - Visible Passes

Search period start: 24 August 2016 00:00
Search period end: 03 September 2016 00:00
Orbit: 807 x 860 km, 99.0° (Epoch: 23 August)

Date Brightness Start Highest point End Pass type
(mag) Time Alt. Az. Time Alt. Az. Time Alt. Az.
24 Aug 6.8 04:47:53 10° E 04:48:57 11° E 04:50:00 10° ESE visible
26 Aug 4.6 05:50:41 10° NNE 05:55:57 53° E 06:01:07 10° S visible
27 Aug 5.4 05:34:07 10° NNE 05:39:00 35° E 05:43:50 10° SSE visible
28 Aug 6.0 05:17:46 10° NE 05:22:02 24° E 05:26:14 10° SSE visible
29 Aug 6.4 05:01:50 10° ENE 05:05:02 16° E 05:08:11 10° SE visible
01 Sep 4.7 05:49:47 10° NNE 05:54:59 51° E 06:00:06 10° S visible
02 Sep 5.4 05:33:13 10° NE 05:38:03 34° E 05:42:47 10° SSE visible
